EI4HQ Weather Reports


Display with metric or nautical units.
time (UTC)temp
F
wind
direction
speed
MPH
gust
MPH
rain 1hr
in
rain 24hr
in
rain mn
in
humidity
%
barometer
mb
20260508175403 55 93 3.0 9.0 0.00 0.00 0.00 71 1016.8
20260508174503 55 92 4.0 10.0 0.00 0.00 0.00 71 1016.7
20260508173603 56 97 4.0 13.0 0.00 0.00 0.00 70 1016.7
20260508172703 56 99 4.0 10.0 0.00 0.00 0.00 70 1016.7
20260508171803 56 92 4.0 10.0 0.00 0.00 0.00 69 1016.5
20260508170903 56 95 4.0 9.0 0.00 0.00 0.00 69 1016.5
20260508170003 57 97 7.0 11.0 0.00 0.00 0.00 69 1016.3
20260508165403 57 100 6.0 11.0 0.00 0.00 0.00 69 1016.3
20260508164503 57 93 6.0 11.0 0.00 0.00 0.00 68 1016.2
20260508163603 56 116 5.0 11.0 0.00 0.00 0.00 69 1016.3
20260508162703 57 113 5.0 10.0 0.00 0.00 0.00 69 1016.4
20260508161803 57 111 3.0 10.0 0.00 0.00 0.00 69 1016.3
20260508160903 57 116 4.0 9.0 0.00 0.00 0.00 69 1016.1
20260508160003 57 121 4.0 8.0 0.00 0.00 0.00 68 1016.1
20260508155403 57 130 4.0 9.0 0.00 0.00 0.00 66 1016.1
20260508154503 58 114 4.0 10.0 0.00 0.00 0.00 66 1016.0
20260508153603 57 128 4.0 7.0 0.00 0.00 0.00 68 1016.0
20260508152703 57 147 4.0 8.0 0.00 0.00 0.00 70 1016.0
20260508151803 57 147 6.0 8.0 0.00 0.00 0.00 68 1015.9
20260508150903 58 139 5.0 8.0 0.00 0.00 0.00 68 1015.8
20260508150003 58 134 5.0 10.0 0.00 0.00 0.00 68 1015.8
20260508145403 58 126 7.0 11.0 0.00 0.00 0.00 68 1015.9
20260508144503 58 133 6.0 11.0 0.00 0.00 0.00 67 1015.9
20260508143603 58 137 7.0 11.0 0.00 0.00 0.00 68 1015.9
20260508142703 58 141 7.0 12.0 0.00 0.00 0.00 69 1015.8
20260508141803 58 147 7.0 12.0 0.00 0.00 0.00 68 1015.8
20260508140903 59 135 7.0 12.0 0.00 0.00 0.00 65 1015.7
20260508140003 59 129 7.0 13.0 0.00 0.00 0.00 64 1015.8
20260508135403 59 136 7.0 12.0 0.00 0.00 0.00 62 1015.8
20260508134503 59 144 7.0 12.0 0.00 0.00 0.00 63 1015.8
20260508133603 59 145 7.0 12.0 0.00 0.00 0.00 63 1015.8
20260508132703 59 134 6.0 11.0 0.00 0.00 0.00 66 1015.8
20260508131803 59 143 5.0 10.0 0.00 0.00 0.00 66 1015.7
20260508130903 59 141 6.0 12.0 0.00 0.00 0.00 65 1015.7
20260508130003 58 115 5.0 10.0 0.00 0.00 0.00 62 1015.7
20260508125403 58 116 6.0 11.0 0.00 0.00 0.00 62 1015.7
20260508124503 58 139 7.0 11.0 0.00 0.00 0.00 66 1015.7
20260508123603 58 142 6.0 11.0 0.00 0.00 0.00 67 1015.6
20260508122703 58 145 5.0 11.0 0.00 0.00 0.00 65 1015.6
20260508121803 58 153 7.0 11.0 0.00 0.00 0.00 66 1015.5
20260508120903 58 162 6.0 11.0 0.00 0.00 0.00 68 1015.5
20260508120003 58 165 5.0 7.0 0.00 0.00 0.00 65 1015.6
20260508115403 58 160 4.0 8.0 0.00 0.00 0.00 67 1015.5
20260508114503 57 170 5.0 8.0 0.00 0.00 0.00 68 1015.6
20260508113603 57 174 4.0 7.0 0.00 0.00 0.00 70 1015.5
20260508112703 56 166 4.0 7.0 0.00 0.00 0.00 72 1015.5
20260508111803 55 169 3.0 6.0 0.00 0.00 0.00 73 1015.5
20260508110903 55 215 2.0 5.0 0.00 0.00 0.00 75 1015.4
20260508110003 54 183 2.0 4.0 0.00 0.00 0.00 75 1015.5
20260508105403 54 170 2.0 4.0 0.00 0.00 0.00 76 1015.4
20260508104503 54 166 2.0 4.0 0.00 0.00 0.00 76 1015.4
20260508103603 54 167 1.0 4.0 0.00 0.00 0.00 76 1015.4
20260508102703 53 167 1.0 3.0 0.00 0.00 0.00 76 1015.4
20260508101803 54 167 2.0 3.0 0.00 0.00 0.00 77 1015.4
20260508100903 53 169 3.0 6.0 0.00 0.00 0.00 77 1015.3
20260508100003 53 158 3.0 6.0 0.00 0.00 0.00 76 1015.3
20260508095403 54 138 2.0 6.0 0.00 0.00 0.00 76 1015.2
20260508094503 54 130 2.0 4.0 0.00 0.00 0.00 76 1015.3
20260508093603 54 135 2.0 5.0 0.00 0.00 0.00 77 1015.3
20260508092703 54 140 3.0 7.0 0.00 0.00 0.00 78 1015.3
20260508091803 53 128 2.0 5.0 0.00 0.00 0.00 77 1015.3
20260508090903 53 129 2.0 4.0 0.00 0.00 0.00 77 1015.2
20260508090003 54 129 2.0 5.0 0.00 0.00 0.00 78 1015.1
20260508085403 54 130 3.0 5.0 0.00 0.00 0.00 78 1015.1
20260508084503 54 133 3.0 6.0 0.00 0.00 0.00 80 1015.0
20260508083603 53 119 2.0 6.0 0.00 0.00 0.00 82 1015.1
20260508082703 53 61 1.0 4.0 0.00 0.00 0.00 83 1015.1
20260508081803 52 61 1.0 3.0 0.00 0.00 0.00 84 1015.1
20260508080903 51 61 1.0 4.0 0.00 0.00 0.00 85 1015.1
20260508080003 50 50 1.0 5.0 0.00 0.00 0.00 85 1015.0
20260508075403 50 40 1.0 3.0 0.00 0.00 0.00 86 1015.0
20260508074503 49 67 1.0 3.0 0.00 0.00 0.00 86 1015.0
20260508073603 49 42 1.0 3.0 0.00 0.00 0.00 87 1014.9
20260508072703 48 346 0.0 2.0 0.00 0.00 0.00 87 1014.8
20260508071803 48 0 0.0 0.0 0.00 0.00 0.00 87 1014.8
20260508070903 48 346 1.0 3.0 0.00 0.00 0.00 87 1014.7
20260508070003 47 345 2.0 4.0 0.00 0.00 0.00 87 1014.6
20260508065403 47 345 2.0 4.0 0.00 0.00 0.00 88 1014.5
20260508064503 46 345 3.0 4.0 0.00 0.00 0.00 88 1014.4
20260508063603 46 354 4.0 5.0 0.00 0.00 0.00 87 1014.3
20260508062703 47 6 2.0 4.0 0.00 0.00 0.00 88 1014.3
20260508061803 47 14 2.0 5.0 0.00 0.00 0.00 88 1014.2
20260508060903 46 31 3.0 5.0 0.00 0.00 0.00 88 1014.1
20260508060003 46 32 1.0 4.0 0.00 0.00 0.00 88 1014.1
20260508055403 46 32 0.0 2.0 0.00 0.00 0.00 89 1014.1
20260508054503 46 32 2.0 3.0 0.00 0.00 0.00 88 1014.0
20260508053603 45 32 1.0 2.0 0.00 0.00 0.00 88 1014.0
20260508052703 45 32 2.0 4.0 0.00 0.00 0.00 88 1013.9
20260508051818 46 32 0.0 3.0 0.00 0.00 0.00 88 1013.9
20260508050903 46 32 1.0 3.0 0.00 0.00 0.00 88 1013.9
20260508050003 45 32 0.0 2.0 0.00 0.00 0.00 88 1014.0
20260508045403 45 32 0.0 1.0 0.00 0.00 0.00 88 1013.9
20260508044503 45 32 1.0 2.0 0.00 0.00 0.00 88 1014.0
20260508043603 45 32 1.0 2.0 0.00 0.00 0.00 88 1013.9
20260508042703 45 32 2.0 3.0 0.00 0.00 0.00 88 1013.9
20260508041803 45 32 0.0 2.0 0.00 0.00 0.00 88 1013.8
20260508040903 45 32 1.0 2.0 0.00 0.00 0.00 87 1013.8
20260508040003 45 32 0.0 2.0 0.00 0.00 0.00 87 1013.8
20260508035403 45 17 1.0 3.0 0.00 0.00 0.00 87 1013.8
20260508034503 45 344 2.0 3.0 0.00 0.00 0.00 87 1013.8
20260508033603 45 344 2.0 4.0 0.00 0.00 0.00 87 1013.9
20260508032703 45 344 3.0 4.0 0.00 0.00 0.00 87 1013.9
20260508031803 46 336 3.0 5.0 0.00 0.00 0.00 87 1013.9
20260508030903 46 321 3.0 5.0 0.00 0.00 0.00 87 1013.9
20260508030003 45 321 2.0 3.0 0.00 0.00 0.00 87 1013.9
20260508025403 46 321 1.0 3.0 0.00 0.00 0.00 87 1013.9
20260508024503 46 0 0.0 0.0 0.00 0.00 0.00 87 1014.0
20260508023603 46 0 0.0 0.0 0.00 0.00 0.00 87 1014.0
20260508022703 46 0 0.0 0.0 0.00 0.00 0.00 87 1013.9
20260508021803 46 0 0.0 0.0 0.00 0.00 0.00 86 1013.9
20260508020903 46 0 0.0 0.0 0.00 0.00 0.00 86 1013.9
20260508020003 46 0 0.0 0.0 0.00 0.00 0.00 86 1013.8
20260508015403 46 321 0.0 1.0 0.00 0.00 0.00 86 1013.8
20260508014503 46 321 1.0 3.0 0.00 0.00 0.00 86 1013.8
20260508013603 46 311 2.0 4.0 0.00 0.00 0.00 86 1013.9
20260508012703 46 0 0.0 0.0 0.00 0.00 0.00 86 1013.9
20260508011803 47 0 0.0 0.0 0.00 0.00 0.00 86 1013.8
20260508010903 47 0 0.0 0.0 0.00 0.00 0.00 86 1013.8
20260508010003 47 0 0.0 0.0 0.00 0.00 0.00 86 1013.8
20260508005403 47 0 0.0 0.0 0.00 0.00 0.00 86 1013.9
20260508004503 47 0 0.0 0.0 0.00 0.00 0.00 86 1014.0
20260508003603 47 0 0.0 0.0 0.00 0.00 0.00 85 1014.0
20260508002703 47 0 0.0 0.0 0.00 0.00 0.00 85 1014.0
20260508001803 47 0 0.0 0.0 0.00 0.00 0.00 85 1014.0
20260508000903 47 0 0.0 0.0 0.00 0.00 0.00 85 1014.0
20260508000003 47 235 1.0 2.0 0.00 0.00 0.00 84 1014.1
20260507235403 47 235 0.0 2.0 0.00 0.00 0.00 84 1014.1
20260507234503 47 0 0.0 0.0 0.00 0.00 0.00 84 1014.1
20260507233603 47 0 0.0 0.0 0.00 0.00 0.00 84 1014.1
20260507232703 47 235 1.0 2.0 0.00 0.00 0.00 83 1014.1
20260507231803 47 235 1.0 2.0 0.00 0.00 0.00 83 1014.2
20260507230903 48 235 1.0 2.0 0.00 0.00 0.00 83 1014.2
20260507230003 48 235 0.0 2.0 0.00 0.00 0.00 83 1014.1
20260507225403 48 235 0.0 2.0 0.00 0.00 0.00 82 1014.1
20260507224504 48 235 0.0 1.0 0.00 0.00 0.00 82 1014.1
20260507223603 49 235 1.0 2.0 0.00 0.00 0.00 82 1014.1
20260507222703 49 235 1.0 2.0 0.00 0.00 0.00 82 1014.1
20260507221803 49 235 1.0 2.0 0.00 0.00 0.00 81 1014.2
20260507220903 49 235 0.0 2.0 0.00 0.00 0.00 81 1014.2
20260507220003 49 235 0.0 2.0 0.00 0.00 0.00 81 1014.2
20260507215403 49 235 1.0 2.0 0.00 0.00 0.00 81 1014.1
20260507214503 49 235 1.0 3.0 0.00 0.00 0.00 81 1014.1
20260507213603 49 235 1.0 3.0 0.00 0.00 0.00 81 1014.0
20260507212703 49 235 1.0 3.0 0.00 0.00 0.00 80 1014.0
20260507211803 49 235 0.0 2.0 0.00 0.00 0.00 80 1014.0
20260507210903 49 235 0.0 2.0 0.00 0.00 0.00 79 1013.9
20260507210003 50 226 0.0 3.0 0.00 0.00 0.00 79 1013.8
20260507205403 50 205 1.0 4.0 0.00 0.00 0.00 79 1013.8
20260507204503 50 201 2.0 4.0 0.00 0.00 0.00 78 1013.6
20260507203603 50 203 2.0 4.0 0.00 0.00 0.00 77 1013.6
20260507202703 50 204 2.0 4.0 0.00 0.00 0.00 77 1013.5
20260507201803 51 192 2.0 5.0 0.00 0.00 0.00 76 1013.5
20260507200903 51 191 2.0 6.0 0.00 0.00 0.00 75 1013.4
20260507200003 51 198 2.0 6.0 0.00 0.00 0.00 75 1013.3
20260507195403 51 206 2.0 8.0 0.00 0.00 0.00 75 1013.3
20260507194503 52 199 3.0 8.0 0.00 0.00 0.00 75 1013.3
20260507193603 52 188 3.0 7.0 0.00 0.00 0.00 74 1013.1
20260507192703 52 197 3.0 7.0 0.00 0.00 0.00 74 1013.1
20260507191803 52 187 3.0 6.0 0.00 0.00 0.00 74 1013.0
20260507190903 53 191 3.0 8.0 0.00 0.00 0.00 73 1013.0
20260507190004 53 219 3.0 8.0 0.00 0.00 0.00 72 1013.0
20260507185403 53 226 3.0 7.0 0.00 0.00 0.00 72 1013.0
20260507184503 54 210 3.0 7.0 0.00 0.00 0.00 72 1013.0
20260507183603 54 230 4.0 9.0 0.00 0.00 0.00 72 1012.9
20260507182703 54 236 4.0 8.0 0.00 0.00 0.00 72 1012.9
20260507181803 54 223 3.0 8.0 0.00 0.00 0.00 72 1012.9
20260507180903 54 198 3.0 8.0 0.00 0.00 0.00 72 1012.8
20260507180003 54 197 3.0 10.0 0.00 0.00 0.00 71 1012.9